Flag for Canada Weather past 2 weeks in Kirkland Lake, Ontario, Canada

Now
0 °F

Mostly cloudy.


Feels Like: -21 °F
Forecast: 1 / 16 °F
Wind: 16 mph from Northwest

Location: Earlton

Current Time: Mar 27, 2015 at 6:56:25 AM

Latest Report: Mar 27, 2015 at 6:00 AM


Visibility: 9 mi

Pressure: 30.10 "Hg

Humidity: 71%

Dew point: -8 °F

Location of Kirkland LakeLocation

Historic Weather in Kirkland Lake — Graph

°F

Kirkland Lake temperature yesterday

Maximum temperature yesterday: 34 °F (at 12:00 AM)
Minimum temperature yesterday: 12 °F (at 10:49 PM)
Average temperature yesterday: 26 °F

Past Weeks' High & Low Weather Summary

 TemperatureHumidityPressure
High39 °F (Mar 16, 3:00 PM)100% (Mar 13, 5:51 AM)30.72 "Hg (Mar 13, 5:51 AM)
Low-9 °F (Mar 18, 7:00 AM)30% (Mar 18, 3:00 PM)29.60 "Hg (Mar 25, 9:00 PM)
Average19 °F73%30.10 "Hg
* Reported Mar 12 5:00 AM — Mar 27 5:00 AM, Kirkland Lake, Weather by CustomWeather, © 2015

Note: Actual official high and low records may vary slightly from our data, if they occured in-between our weather recording intervals... More about our weather records

Advertising

Kirkland Lake weather history for previous 24 hours

 ConditionsComfort  
Time TempWeatherWind HumidityBarometerVisibility
5:00 AM
Fri, Mar 27
1 °FOvercast.20 mph71%30.08 "Hg7 mi
4:00 AM3 °FMostly cloudy.18 mph72%30.06 "Hg9 mi
3:00 AM7 °FLight snow. Overcast.14 mph78%30.04 "Hg7 mi
2:56 AM7 °FLight snow. Overcast.16 mph78%30.04 "Hg7 mi
2:00 AM9 °FOvercast.15 mph72%30.03 "Hg9 mi
1:00 AM9 °FMostly cloudy.14 mph78%30.02 "Hg9 mi
12:00 AM10 °FPassing clouds.15 mph72%30.01 "Hg9 mi
11:00 PM
Thu, Mar 26
12 °FLight snow. Overcast.14 mph85%29.99 "Hg7 mi
10:49 PM12 °FLight snow. Mostly cloudy.15 mph85%29.99 "Hg6 mi
10:00 PM14 °FLight snow. Overcast.16 mph85%29.98 "Hg3 mi
9:00 PM16 °FLight snow. Mostly cloudy.18 mph73%29.97 "Hg4 mi
8:52 PM16 °FLight snow. Mostly cloudy.17 mph73%29.97 "Hg5 mi
8:00 PM18 °FLight snow. Partly sunny.13 mph73%29.93 "Hg9 mi
7:00 PM19 °FLight snow. Overcast.12 mph73%29.90 "Hg9 mi
6:56 PM19 °FLight snow. Overcast.15 mph73%29.89 "Hg8 mi
6:04 PM19 °FLight snow. Mostly cloudy.17 mph86%29.87 "Hg1 mi
5:02 PM23 °FLight snow. Overcast.20 mph80%29.84 "Hg3 mi
4:00 PM25 °FLight snow. Overcast.16 mph80%29.82 "Hg2 mi
3:00 PM25 °FLight snow. Mostly cloudy.16 mph80%29.81 "Hg1 mi
2:49 PM25 °FLight snow. Mostly cloudy.17 mph80%29.81 "Hg1 mi
2:00 PM25 °FLight snow. Mostly cloudy.16 mph86%29.80 "Hg3 mi
1:59 PM25 °FLight snow. Mostly cloudy.16 mph86%29.80 "Hg3 mi
1:00 PM32 °FLight snow. Overcast.5 mph80%29.78 "Hg9 mi
12:00 PM30 °FLight snow. Mostly cloudy.6 mph86%29.79 "Hg9 mi
11:51 AM30 °FLight snow. Mostly cloudy.6 mph86%29.79 "Hg9 mi
11:00 AM30 °FOvercast.5 mph80%29.79 "Hg9 mi
10:00 AM30 °FMostly cloudy.7 mph80%29.78 "Hg9 mi
9:57 AM30 °FMostly cloudy.7 mph80%29.78 "Hg9 mi
9:00 AM30 °FPartly sunny.8 mph80%29.76 "Hg9 mi
8:00 AM28 °FOvercast.7 mph86%29.76 "Hg9 mi
7:00 AM28 °FPassing clouds.10 mph86%29.75 "Hg9 mi
6:00 AM28 °FPartly cloudy.12 mph86%29.74 "Hg9 mi
Weather by CustomWeather, © 2015

See weather overviewHow to use our weather pages